Regional Weather Roundup
Issued by NWS

Home | Current Version | Previous Version | Graphics & Text | Print | Product List | Glossary On
Versions: 1 2 3 4 5 6 7 8 9 10 11 12 13 14 15 16 17 18 19 20 21 22 23 24 25 26 27 28 29 30 31 32 33 34 35 36 37 38 39 40 41 42 43 44 45 46 47 48 49 50
186
ASUS45 KCYS 291710
RWRWY

WYOMING REGIONAL WEATHER ROUNDUP
NATIONAL WEATHER SERVICE CHEYENNE WY
1100 AM MDT THU SEP 29 2016

NOTE:  "FAIR" INDICATES FEW OR NO CLOUDS BELOW 12,000 FEET
WITH NO SIGNIFICANT WEATHER AND/OR OBSTRUCTIONS TO VISIBILITY.

WYZ001-291800-
YELLOWSTONE NATIONAL PARK

CITY           SKY/WX    TMP DP  RH WIND       PRES   REMARKS
LK YELLOWSTONE   N/A     51  42  71 VRB3      30.44R
W YELLOWSTONE  NOT AVBL

$$
WYZ002>013-054>058-071-098>099-291800-
NORTHERN WYOMING

CITY           SKY/WX    TMP DP  RH WIND       PRES   REMARKS
JACKSON        CLOUDY    52  41  66 CALM      30.38R
CODY           FAIR      71  41  33 S13       30.23S
GREYBULL       PTSUNNY  N/A N/A N/A MISG      30.18F
WORLAND        FAIR      72  45  37 SE6       30.19F
SHERIDAN       FAIR      64  46  52 NW3       30.18F
BUFFALO        PTSUNNY   71  46  40 S5        30.22F
GILLETTE       FAIR      66  44  45 SE18      30.24F
HULETT         FAIR      75  41  29 S14G20    30.27S
NEWCASTLE      FAIR      70  37  30 SE20      30.30F

$$
WYZ014>020-022>026-101>103-291800-
CENTRAL WYOMING

CITY           SKY/WX    TMP DP  RH WIND       PRES   REMARKS
BIG PINEY      CLOUDY    61  39  44 S7        30.40S
PINEDALE       PTSUNNY   63  37  39 SE9       30.42S
DUBOIS         CLOUDY    54  39  58 CALM      30.38S
LANDER         FAIR      64  41  42 VRB3      30.30S
RIVERTON       FAIR      63  45  51 CALM      30.32R
CASPER         FAIR      71  42  35 S8        30.31S
DOUGLAS        FAIR      67  41  38 S7        30.31F

$$
WYZ021-027>030-104>119-291800-
SOUTHERN WYOMING

CITY           SKY/WX    TMP DP  RH WIND       PRES   REMARKS
EVANSTON       FAIR      62  40  44 VRB6      30.40R
FORT BRIDGER   FAIR      64  41  42 CALM      30.43R
ROCK SPRINGS   CLOUDY    55  47  74 E8        30.42S
DIXON          LGT RAIN  61  40  46 S6        30.48S
RAWLINS        FAIR      65  37  35 SW13G24   30.44R
SARATOGA       FAIR      64  34  32 SW7       30.45S
LARAMIE        FAIR      68  32  26 CALM      30.44S
CHEYENNE       FAIR      72  35  25 S8        30.38F
TORRINGTON     FAIR      67  42  40 SE12      30.30F
PINE BLUFFS    FAIR      68  37  32 S9        30.36F

$$




USA.gov is the U.S. government's official web portal to all federal, state and local government web resources and services.